Year,Month,Day,Hour,Minute,Value (Times are PST for temperature in C)
2015,07,09,00,00,18.30
2015,07,09,00,01,18.30
2015,07,09,00,02,18.30
2015,07,09,00,03,18.30
2015,07,09,00,04,18.20
2015,07,09,00,05,18.20
2015,07,09,00,06,18.20
2015,07,09,00,07,18.20
2015,07,09,00,08,18.20
2015,07,09,00,09,18.20
2015,07,09,00,10,18.20
2015,07,09,00,11,18.10
2015,07,09,00,12,18.10
2015,07,09,00,13,18.10
2015,07,09,00,14,18.10
2015,07,09,00,15,18.10
2015,07,09,00,16,18.10
2015,07,09,00,17,18.00
2015,07,09,00,18,18.00
2015,07,09,00,19,18.00
2015,07,09,00,20,18.00
2015,07,09,00,21,17.90
2015,07,09,00,22,17.90
2015,07,09,00,23,17.90
2015,07,09,00,24,17.90
2015,07,09,00,25,17.80
2015,07,09,00,26,17.80
2015,07,09,00,27,17.80
2015,07,09,00,28,17.80
2015,07,09,00,29,17.80
2015,07,09,00,30,17.70
2015,07,09,00,31,17.70
2015,07,09,00,32,17.70
2015,07,09,00,33,17.70
2015,07,09,00,34,17.60
2015,07,09,00,35,17.60
2015,07,09,00,36,17.60
2015,07,09,00,37,17.60
2015,07,09,00,38,17.50
2015,07,09,00,39,17.50
2015,07,09,00,40,17.50
2015,07,09,00,41,17.40
2015,07,09,00,42,17.40
2015,07,09,00,43,17.40
2015,07,09,00,44,17.40
2015,07,09,00,45,17.40
2015,07,09,00,46,17.40
2015,07,09,00,47,17.30
2015,07,09,00,48,17.30
2015,07,09,00,49,17.30
2015,07,09,00,50,17.30
2015,07,09,00,51,17.30
2015,07,09,00,52,17.20
2015,07,09,00,53,17.20
2015,07,09,00,54,17.20
2015,07,09,00,55,17.20
2015,07,09,00,56,17.20
2015,07,09,00,57,17.20
2015,07,09,00,58,17.10
2015,07,09,00,59,17.10
2015,07,09,01,00,17.10
2015,07,09,01,01,17.10
2015,07,09,01,02,17.10
2015,07,09,01,03,17.10
2015,07,09,01,04,17.00
2015,07,09,01,05,17.00
2015,07,09,01,06,17.00
2015,07,09,01,07,17.00
2015,07,09,01,08,16.90
2015,07,09,01,09,16.90
2015,07,09,01,10,16.90
2015,07,09,01,11,16.80
2015,07,09,01,12,16.80
2015,07,09,01,13,16.80
2015,07,09,01,14,16.80
2015,07,09,01,15,16.70
2015,07,09,01,16,16.70
2015,07,09,01,17,16.70
2015,07,09,01,18,16.60
2015,07,09,01,19,16.60
2015,07,09,01,20,16.60
2015,07,09,01,21,16.50
2015,07,09,01,22,16.50
2015,07,09,01,23,16.40
2015,07,09,01,24,16.40
2015,07,09,01,25,16.40
2015,07,09,01,26,16.30
2015,07,09,01,27,16.30
2015,07,09,01,28,16.30
2015,07,09,01,29,16.30
2015,07,09,01,30,16.20
2015,07,09,01,31,16.20
2015,07,09,01,32,16.20
2015,07,09,01,33,16.10
2015,07,09,01,34,16.10
2015,07,09,01,35,16.10
2015,07,09,01,36,16.00
2015,07,09,01,37,16.00
2015,07,09,01,38,15.90
2015,07,09,01,39,15.90
2015,07,09,01,40,15.90
2015,07,09,01,41,15.90
2015,07,09,01,42,15.90
2015,07,09,01,43,15.90
2015,07,09,01,44,15.90
2015,07,09,01,45,15.90
2015,07,09,01,46,15.90
2015,07,09,01,47,15.90
2015,07,09,01,48,15.90
2015,07,09,01,49,15.80
2015,07,09,01,50,15.80
2015,07,09,01,51,15.80
2015,07,09,01,52,15.80
2015,07,09,01,53,15.80
2015,07,09,01,54,15.80
2015,07,09,01,55,15.80
2015,07,09,01,56,15.80
2015,07,09,01,57,15.80
2015,07,09,01,58,15.80
2015,07,09,01,59,15.80
2015,07,09,02,00,15.80
2015,07,09,02,01,15.80
2015,07,09,02,02,15.80
2015,07,09,02,03,15.80
2015,07,09,02,04,15.80
2015,07,09,02,05,15.80
2015,07,09,02,06,15.80
2015,07,09,02,07,15.80
2015,07,09,02,08,15.80
2015,07,09,02,09,15.80
2015,07,09,02,10,15.80
2015,07,09,02,11,15.80
2015,07,09,02,12,15.80
2015,07,09,02,13,15.80
2015,07,09,02,14,15.80
2015,07,09,02,15,15.80
2015,07,09,02,16,15.80
2015,07,09,02,17,15.80
2015,07,09,02,18,15.90
2015,07,09,02,19,15.90
2015,07,09,02,20,15.90
2015,07,09,02,21,15.90
2015,07,09,02,22,15.90
2015,07,09,02,23,15.90
2015,07,09,02,24,15.90
2015,07,09,02,25,15.90
2015,07,09,02,26,15.90
2015,07,09,02,27,15.90
2015,07,09,02,28,15.90
2015,07,09,02,29,15.90
2015,07,09,02,30,15.90
2015,07,09,02,31,15.90
2015,07,09,02,32,15.90
2015,07,09,02,33,16.00
2015,07,09,02,34,16.00
2015,07,09,02,35,16.00
2015,07,09,02,36,16.00
2015,07,09,02,37,16.10
2015,07,09,02,38,16.10
2015,07,09,02,39,16.10
2015,07,09,02,40,16.10
2015,07,09,02,41,16.10
2015,07,09,02,42,16.10
2015,07,09,02,43,16.10
2015,07,09,02,44,16.10
2015,07,09,02,45,16.10
2015,07,09,02,46,16.10
2015,07,09,02,47,16.10
2015,07,09,02,48,16.10
2015,07,09,02,49,16.10
2015,07,09,02,50,16.10
2015,07,09,02,51,16.10
2015,07,09,02,52,16.10
2015,07,09,02,53,16.10
2015,07,09,02,54,16.10
2015,07,09,02,55,16.10
2015,07,09,02,56,16.10
2015,07,09,02,57,16.10
2015,07,09,02,58,16.10
2015,07,09,02,59,16.10
2015,07,09,03,00,16.00
2015,07,09,03,01,16.00
2015,07,09,03,02,16.00
2015,07,09,03,03,16.00
2015,07,09,03,04,16.00
2015,07,09,03,05,15.90
2015,07,09,03,06,15.90
2015,07,09,03,07,15.90
2015,07,09,03,08,15.90
2015,07,09,03,09,15.90
2015,07,09,03,10,15.90
2015,07,09,03,11,15.80
2015,07,09,03,12,15.80
2015,07,09,03,13,15.80
2015,07,09,03,14,15.80
2015,07,09,03,15,15.80
2015,07,09,03,16,15.80
2015,07,09,03,17,15.80
2015,07,09,03,18,15.70
2015,07,09,03,19,15.70
2015,07,09,03,20,15.70
2015,07,09,03,21,15.70
2015,07,09,03,22,15.70
2015,07,09,03,23,15.70
2015,07,09,03,24,15.70
2015,07,09,03,25,15.70
2015,07,09,03,26,15.70
2015,07,09,03,27,15.70
2015,07,09,03,28,15.70
2015,07,09,03,29,15.70
2015,07,09,03,30,15.60
2015,07,09,03,31,15.60
2015,07,09,03,32,15.60
2015,07,09,03,33,15.60
2015,07,09,03,34,15.60
2015,07,09,03,35,15.60
2015,07,09,03,36,15.60
2015,07,09,03,37,15.60
2015,07,09,03,38,15.60
2015,07,09,03,39,15.60
2015,07,09,03,40,15.60
2015,07,09,03,41,15.60
2015,07,09,03,42,15.60
2015,07,09,03,43,15.50
2015,07,09,03,44,15.50
2015,07,09,03,45,15.50
2015,07,09,03,46,15.40
2015,07,09,03,47,15.40
2015,07,09,03,48,15.40
2015,07,09,03,49,15.30
2015,07,09,03,50,15.30
2015,07,09,03,51,15.30
2015,07,09,03,52,15.30
2015,07,09,03,53,15.30
2015,07,09,03,54,15.30
2015,07,09,03,55,15.20
2015,07,09,03,56,15.20
2015,07,09,03,57,15.20
2015,07,09,03,58,15.20
2015,07,09,03,59,15.20
2015,07,09,04,00,15.20
2015,07,09,04,01,15.10
2015,07,09,04,02,15.10
2015,07,09,04,03,15.10
2015,07,09,04,04,15.10
2015,07,09,04,05,15.10
2015,07,09,04,06,15.10
2015,07,09,04,07,15.10
2015,07,09,04,08,15.10
2015,07,09,04,09,15.00
2015,07,09,04,10,15.00
2015,07,09,04,11,15.00
2015,07,09,04,12,15.00
2015,07,09,04,13,15.00
2015,07,09,04,14,15.00
2015,07,09,04,15,15.00
2015,07,09,04,16,15.00
2015,07,09,04,17,15.00
2015,07,09,04,18,15.00
2015,07,09,04,19,15.00
2015,07,09,04,20,15.00
2015,07,09,04,21,15.00
2015,07,09,04,22,15.00
2015,07,09,04,23,15.00
2015,07,09,04,24,15.00
2015,07,09,04,25,15.00
2015,07,09,04,26,15.00
2015,07,09,04,27,15.00
2015,07,09,04,28,15.00
2015,07,09,04,29,15.10
2015,07,09,04,30,15.10
2015,07,09,04,31,15.10
2015,07,09,04,32,15.10
2015,07,09,04,33,15.10
2015,07,09,04,34,15.10
2015,07,09,04,35,15.10
2015,07,09,04,36,15.10
2015,07,09,04,37,15.10
2015,07,09,04,38,15.10
2015,07,09,04,39,15.00
2015,07,09,04,40,15.00
2015,07,09,04,41,15.00
2015,07,09,04,42,15.00
2015,07,09,04,43,15.00
2015,07,09,04,44,15.00
2015,07,09,04,45,15.00
2015,07,09,04,46,15.00
2015,07,09,04,47,15.00
2015,07,09,04,48,14.90
2015,07,09,04,49,14.90
2015,07,09,04,50,14.90
2015,07,09,04,51,14.90
2015,07,09,04,52,14.90
2015,07,09,04,53,14.80
2015,07,09,04,54,14.80
2015,07,09,04,55,14.80
2015,07,09,04,56,14.80
2015,07,09,04,57,14.80
2015,07,09,04,58,14.70
2015,07,09,04,59,14.70
2015,07,09,05,00,14.70
2015,07,09,05,01,14.70
2015,07,09,05,02,14.60
2015,07,09,05,03,14.60
2015,07,09,05,04,14.60
2015,07,09,05,05,14.60
2015,07,09,05,06,14.60
2015,07,09,05,07,14.60
2015,07,09,05,08,14.50
2015,07,09,05,09,14.50
2015,07,09,05,10,14.50
2015,07,09,05,11,14.50
2015,07,09,05,12,14.50
2015,07,09,05,13,14.50
2015,07,09,05,14,14.50
2015,07,09,05,15,14.50
2015,07,09,05,16,14.50
2015,07,09,05,17,14.50
2015,07,09,05,18,14.50
2015,07,09,05,19,14.40
2015,07,09,05,20,14.40
2015,07,09,05,21,14.40
2015,07,09,05,22,14.40
2015,07,09,05,23,14.40
2015,07,09,05,24,14.40
2015,07,09,05,25,14.30
2015,07,09,05,26,14.30
2015,07,09,05,27,14.30
2015,07,09,05,28,14.30
2015,07,09,05,29,14.30
2015,07,09,05,30,14.30
2015,07,09,05,31,14.30
2015,07,09,05,32,14.30
2015,07,09,05,33,14.30
2015,07,09,05,34,14.30
2015,07,09,05,35,14.30
2015,07,09,05,36,14.20
2015,07,09,05,37,14.20
2015,07,09,05,38,14.20
2015,07,09,05,39,14.20
2015,07,09,05,40,14.20
2015,07,09,05,41,14.20
2015,07,09,05,42,14.20
2015,07,09,05,43,14.20
2015,07,09,05,44,14.20
2015,07,09,05,45,14.20
2015,07,09,05,46,14.20
2015,07,09,05,47,14.20
2015,07,09,05,48,14.20
2015,07,09,05,49,14.20
2015,07,09,05,50,14.10
2015,07,09,05,51,14.10
2015,07,09,05,52,14.10
2015,07,09,05,53,14.10
2015,07,09,05,54,14.10
2015,07,09,05,55,14.10
2015,07,09,05,56,14.10
2015,07,09,05,57,14.10
2015,07,09,05,58,14.10
2015,07,09,05,59,14.10
2015,07,09,06,00,14.10
2015,07,09,06,01,14.10
2015,07,09,06,02,14.10
2015,07,09,06,03,14.10
2015,07,09,06,04,14.10
2015,07,09,06,05,14.10
2015,07,09,06,06,14.00
2015,07,09,06,07,14.00
2015,07,09,06,08,14.00
2015,07,09,06,09,14.00
2015,07,09,06,10,14.00
2015,07,09,06,11,14.00
2015,07,09,06,12,14.00
2015,07,09,06,13,14.00
2015,07,09,06,14,14.00
2015,07,09,06,15,14.00
2015,07,09,06,16,14.00
2015,07,09,06,17,14.00
2015,07,09,06,18,14.10
2015,07,09,06,19,14.10
2015,07,09,06,20,14.10
2015,07,09,06,21,14.10
2015,07,09,06,22,14.10
2015,07,09,06,23,14.10
2015,07,09,06,24,14.10
2015,07,09,06,25,14.10
2015,07,09,06,26,14.10
2015,07,09,06,27,14.10
2015,07,09,06,28,14.10
2015,07,09,06,29,14.10
2015,07,09,06,30,14.10
2015,07,09,06,31,14.10
2015,07,09,06,32,14.10
2015,07,09,06,33,14.10
2015,07,09,06,34,14.10
2015,07,09,06,35,14.10
2015,07,09,06,36,14.10
2015,07,09,06,37,14.10
2015,07,09,06,38,14.10
2015,07,09,06,39,14.10
2015,07,09,06,40,14.20
2015,07,09,06,41,14.20
2015,07,09,06,42,14.20
2015,07,09,06,43,14.20
2015,07,09,06,44,14.20
2015,07,09,06,45,14.20
2015,07,09,06,46,14.30
2015,07,09,06,47,14.30
2015,07,09,06,48,14.30
2015,07,09,06,49,14.40
2015,07,09,06,50,14.40
2015,07,09,06,51,14.40
2015,07,09,06,52,14.40
2015,07,09,06,53,14.40
2015,07,09,06,54,14.50
2015,07,09,06,55,14.50
2015,07,09,06,56,14.50
2015,07,09,06,57,14.60
2015,07,09,06,58,14.60
2015,07,09,06,59,14.60
2015,07,09,07,00,14.70
2015,07,09,07,01,14.70
2015,07,09,07,02,14.70
2015,07,09,07,03,14.80
2015,07,09,07,04,14.80
2015,07,09,07,05,14.90
2015,07,09,07,06,14.90
2015,07,09,07,07,15.00
2015,07,09,07,08,15.00
2015,07,09,07,09,15.00
2015,07,09,07,10,15.10
2015,07,09,07,11,15.10
2015,07,09,07,12,15.10
2015,07,09,07,13,15.10
2015,07,09,07,14,15.10
2015,07,09,07,15,15.20
2015,07,09,07,16,15.20
2015,07,09,07,17,15.20
2015,07,09,07,18,15.20
2015,07,09,07,19,15.30
2015,07,09,07,20,15.30
2015,07,09,07,21,15.30
2015,07,09,07,22,15.30
2015,07,09,07,23,15.30
2015,07,09,07,24,15.30
2015,07,09,07,25,15.40
2015,07,09,07,26,15.40
2015,07,09,07,27,15.50
2015,07,09,07,28,15.50
2015,07,09,07,29,15.60
2015,07,09,07,30,15.70
2015,07,09,07,31,15.70
2015,07,09,07,32,15.80
2015,07,09,07,33,15.80
2015,07,09,07,34,15.80
2015,07,09,07,35,15.90
2015,07,09,07,36,15.90
2015,07,09,07,37,16.00
2015,07,09,07,38,16.00
2015,07,09,07,39,16.00
2015,07,09,07,40,16.10
2015,07,09,07,41,16.10
2015,07,09,07,42,16.10
2015,07,09,07,43,16.10
2015,07,09,07,44,16.20
2015,07,09,07,45,16.20
2015,07,09,07,46,16.20
2015,07,09,07,47,16.30
2015,07,09,07,48,16.30
2015,07,09,07,49,16.30
2015,07,09,07,50,16.40
2015,07,09,07,51,16.40
2015,07,09,07,52,16.50
2015,07,09,07,53,16.60
2015,07,09,07,54,16.60
2015,07,09,07,55,16.70
2015,07,09,07,56,16.70
2015,07,09,07,57,16.70
2015,07,09,07,58,16.80
2015,07,09,07,59,16.80
2015,07,09,08,00,16.90
2015,07,09,08,01,16.90
2015,07,09,08,02,17.00
2015,07,09,08,03,17.10
2015,07,09,08,04,17.20
2015,07,09,08,05,17.20
2015,07,09,08,06,17.30
2015,07,09,08,07,17.40
2015,07,09,08,08,17.50
2015,07,09,08,09,17.50
2015,07,09,08,10,17.50
2015,07,09,08,11,17.60
2015,07,09,08,12,17.60
2015,07,09,08,13,17.70
2015,07,09,08,14,17.70
2015,07,09,08,15,17.80
2015,07,09,08,16,17.90
2015,07,09,08,17,18.00
2015,07,09,08,18,18.00
2015,07,09,08,19,18.10
2015,07,09,08,20,18.20
2015,07,09,08,21,18.30
2015,07,09,08,22,18.40
2015,07,09,08,23,18.50
2015,07,09,08,24,18.60
2015,07,09,08,25,18.70
2015,07,09,08,26,18.80
2015,07,09,08,27,18.80
2015,07,09,08,28,18.80
2015,07,09,08,29,18.80
2015,07,09,08,30,18.80
2015,07,09,08,31,18.70
2015,07,09,08,32,18.70
2015,07,09,08,33,18.70
2015,07,09,08,34,18.60
2015,07,09,08,35,18.60
2015,07,09,08,36,18.60
2015,07,09,08,37,18.70
2015,07,09,08,38,18.60
2015,07,09,08,39,18.60
2015,07,09,08,40,18.60
2015,07,09,08,41,18.60
2015,07,09,08,42,18.60
2015,07,09,08,43,18.70
2015,07,09,08,44,18.60
2015,07,09,08,45,18.60
2015,07,09,08,46,18.60
2015,07,09,08,47,18.70
2015,07,09,08,48,18.70
2015,07,09,08,49,18.60
2015,07,09,08,50,18.60
2015,07,09,08,51,18.60
2015,07,09,08,52,18.70
2015,07,09,08,53,18.70
2015,07,09,08,54,18.70
2015,07,09,08,55,18.70
2015,07,09,08,56,18.80
2015,07,09,08,57,18.80
2015,07,09,08,58,18.80
2015,07,09,08,59,18.80
2015,07,09,09,00,18.80
2015,07,09,09,01,18.80
2015,07,09,09,02,18.80
2015,07,09,09,03,18.80
2015,07,09,09,04,18.80
2015,07,09,09,05,18.70
2015,07,09,09,06,18.70
2015,07,09,09,07,18.80
2015,07,09,09,08,18.80
2015,07,09,09,09,18.90
2015,07,09,09,10,19.00
2015,07,09,09,11,19.00
2015,07,09,09,12,19.10
2015,07,09,09,13,19.10
2015,07,09,09,14,19.20
2015,07,09,09,15,19.20
2015,07,09,09,16,19.30
2015,07,09,09,17,19.30
2015,07,09,09,18,19.30
2015,07,09,09,19,19.30
2015,07,09,09,20,19.40
2015,07,09,09,21,19.40
2015,07,09,09,22,19.40
2015,07,09,09,23,19.50
2015,07,09,09,24,19.50
2015,07,09,09,25,19.50
2015,07,09,09,26,19.50
2015,07,09,09,27,19.50
2015,07,09,09,28,19.60
2015,07,09,09,29,19.60
2015,07,09,09,30,19.60
2015,07,09,09,31,19.70
2015,07,09,09,32,19.70
2015,07,09,09,33,19.70
2015,07,09,09,34,19.70
2015,07,09,09,35,19.80
2015,07,09,09,36,19.80
2015,07,09,09,37,19.90
2015,07,09,09,38,20.00
2015,07,09,09,39,20.00
2015,07,09,09,40,20.10
2015,07,09,09,41,20.10
2015,07,09,09,42,20.10
2015,07,09,09,43,20.10
2015,07,09,09,44,20.00
2015,07,09,09,45,20.00
2015,07,09,09,46,19.90
2015,07,09,09,47,19.80
2015,07,09,09,48,19.80
2015,07,09,09,49,19.80
2015,07,09,09,50,19.90
2015,07,09,09,51,19.90
2015,07,09,09,52,19.90
2015,07,09,09,53,19.90
2015,07,09,09,54,20.00
2015,07,09,09,55,20.10
2015,07,09,09,56,20.10
2015,07,09,09,57,20.20
2015,07,09,09,58,20.30
2015,07,09,09,59,20.30
2015,07,09,10,00,20.40
2015,07,09,10,01,20.30
2015,07,09,10,02,20.30
2015,07,09,10,03,20.30
2015,07,09,10,04,20.20
2015,07,09,10,05,20.20
2015,07,09,10,06,20.30
2015,07,09,10,07,20.30
2015,07,09,10,08,20.40
2015,07,09,10,09,20.40
2015,07,09,10,10,20.50
2015,07,09,10,11,20.50
2015,07,09,10,12,20.60
2015,07,09,10,13,20.60
2015,07,09,10,14,20.60
2015,07,09,10,15,20.70
2015,07,09,10,16,20.70
2015,07,09,10,17,20.80
2015,07,09,10,18,20.90
2015,07,09,10,19,20.90
2015,07,09,10,20,21.00
2015,07,09,10,21,21.00
2015,07,09,10,22,21.10
2015,07,09,10,23,21.10
2015,07,09,10,24,21.10
2015,07,09,10,25,21.00
2015,07,09,10,26,21.00
2015,07,09,10,27,20.90
2015,07,09,10,28,20.90
2015,07,09,10,29,20.90
2015,07,09,10,30,21.00
2015,07,09,10,31,21.00
2015,07,09,10,32,21.00
2015,07,09,10,33,21.10
2015,07,09,10,34,21.10
2015,07,09,10,35,21.10
2015,07,09,10,36,21.10
2015,07,09,10,37,21.10
2015,07,09,10,38,21.10
2015,07,09,10,39,21.20
2015,07,09,10,40,21.20
2015,07,09,10,41,21.30
2015,07,09,10,42,21.40
2015,07,09,10,43,21.40
2015,07,09,10,44,21.50
2015,07,09,10,45,21.60
2015,07,09,10,46,21.70
2015,07,09,10,47,21.70
2015,07,09,10,48,21.70
2015,07,09,10,49,21.80
2015,07,09,10,50,21.90
2015,07,09,10,51,21.90
2015,07,09,10,52,21.90
2015,07,09,10,53,21.90
2015,07,09,10,54,22.00
2015,07,09,10,55,22.00
2015,07,09,10,56,22.10
2015,07,09,10,57,22.20
2015,07,09,10,58,22.20
2015,07,09,10,59,22.30
2015,07,09,11,00,22.30
2015,07,09,11,01,22.30
2015,07,09,11,02,22.30
2015,07,09,11,03,22.40
2015,07,09,11,04,22.50
2015,07,09,11,05,22.50
2015,07,09,11,06,22.60
2015,07,09,11,07,22.70
2015,07,09,11,08,22.70
2015,07,09,11,09,22.80
2015,07,09,11,10,22.80
2015,07,09,11,11,22.90
2015,07,09,11,12,22.90
2015,07,09,11,13,22.90
2015,07,09,11,14,22.90
2015,07,09,11,15,22.90
2015,07,09,11,16,22.90
2015,07,09,11,17,23.00
2015,07,09,11,18,23.00
2015,07,09,11,19,22.90
2015,07,09,11,20,22.90
2015,07,09,11,21,22.90
2015,07,09,11,22,22.90
2015,07,09,11,23,22.80
2015,07,09,11,24,22.80
2015,07,09,11,25,22.90
2015,07,09,11,26,22.90
2015,07,09,11,27,22.90
2015,07,09,11,28,22.90
2015,07,09,11,29,22.90
2015,07,09,11,30,23.00
2015,07,09,11,31,23.00
2015,07,09,11,32,23.10
2015,07,09,11,33,23.20
2015,07,09,11,34,23.20
2015,07,09,11,35,23.20
2015,07,09,11,36,23.20
2015,07,09,11,37,23.30
2015,07,09,11,38,23.20
2015,07,09,11,39,23.20
2015,07,09,11,40,23.20
2015,07,09,11,41,23.20
2015,07,09,11,42,23.20
2015,07,09,11,43,23.10
2015,07,09,11,44,23.10
2015,07,09,11,45,23.10
2015,07,09,11,46,23.10
2015,07,09,11,47,23.10
2015,07,09,11,48,23.10
2015,07,09,11,49,23.10
2015,07,09,11,50,23.20
2015,07,09,11,51,23.20
2015,07,09,11,52,23.20
2015,07,09,11,53,23.20
2015,07,09,11,54,23.10
2015,07,09,11,55,23.00
2015,07,09,11,56,22.80
2015,07,09,11,57,22.80
2015,07,09,11,58,22.70
2015,07,09,11,59,22.80
2015,07,09,12,00,22.90
2015,07,09,12,01,22.90
2015,07,09,12,02,23.00
2015,07,09,12,03,23.10
2015,07,09,12,04,23.20
2015,07,09,12,05,23.30
2015,07,09,12,06,23.30
2015,07,09,12,07,23.30
2015,07,09,12,08,23.30
2015,07,09,12,09,23.30
2015,07,09,12,10,23.20
2015,07,09,12,11,23.20
2015,07,09,12,12,23.30
2015,07,09,12,13,23.30
2015,07,09,12,14,23.30
2015,07,09,12,15,23.30
2015,07,09,12,16,23.30
2015,07,09,12,17,23.30
2015,07,09,12,18,23.30
2015,07,09,12,19,23.20
2015,07,09,12,20,23.20
2015,07,09,12,21,23.20
2015,07,09,12,22,23.20
2015,07,09,12,23,23.20
2015,07,09,12,24,23.20
2015,07,09,12,25,23.30
2015,07,09,12,26,23.30
2015,07,09,12,27,23.50
2015,07,09,12,28,23.60
2015,07,09,12,29,23.60
2015,07,09,12,30,23.70
2015,07,09,12,31,23.70
2015,07,09,12,32,23.80
2015,07,09,12,33,23.90
2015,07,09,12,34,24.00
2015,07,09,12,35,24.10
2015,07,09,12,36,24.10
2015,07,09,12,37,24.10
2015,07,09,12,38,24.10
2015,07,09,12,39,24.10
2015,07,09,12,40,24.20
2015,07,09,12,41,24.20
2015,07,09,12,42,24.20
2015,07,09,12,43,24.20
2015,07,09,12,44,24.30
2015,07,09,12,45,24.30
2015,07,09,12,46,24.20
2015,07,09,12,47,24.20
2015,07,09,12,48,24.20
2015,07,09,12,49,24.20
2015,07,09,12,50,24.30
2015,07,09,12,51,24.40
2015,07,09,12,52,24.50
2015,07,09,12,53,24.50
2015,07,09,12,54,24.60
2015,07,09,12,55,24.60
2015,07,09,12,56,24.50
2015,07,09,12,57,24.60
2015,07,09,12,58,24.60
2015,07,09,12,59,24.70
2015,07,09,13,00,24.70
2015,07,09,13,01,24.70
2015,07,09,13,02,24.80
2015,07,09,13,03,24.80
2015,07,09,13,04,24.80
2015,07,09,13,05,24.80
2015,07,09,13,06,24.80
2015,07,09,13,07,24.90
2015,07,09,13,08,24.90
2015,07,09,13,09,24.90
2015,07,09,13,10,25.00
2015,07,09,13,11,25.00
2015,07,09,13,12,25.10
2015,07,09,13,13,25.20
2015,07,09,13,14,25.30
2015,07,09,13,15,25.40
2015,07,09,13,16,25.50
2015,07,09,13,17,25.50
2015,07,09,13,18,25.50
2015,07,09,13,19,25.60
2015,07,09,13,20,25.60
2015,07,09,13,21,25.60
2015,07,09,13,22,25.60
2015,07,09,13,23,25.60
2015,07,09,13,24,25.70
2015,07,09,13,25,25.70
2015,07,09,13,26,25.70
2015,07,09,13,27,25.80
2015,07,09,13,28,25.80
2015,07,09,13,29,25.90
2015,07,09,13,30,26.00
2015,07,09,13,31,26.00
2015,07,09,13,32,26.10
2015,07,09,13,33,26.10
2015,07,09,13,34,26.00
2015,07,09,13,35,25.90
2015,07,09,13,36,25.80
2015,07,09,13,37,25.80
2015,07,09,13,38,25.90
2015,07,09,13,39,26.00
2015,07,09,13,40,26.00
2015,07,09,13,41,26.00
2015,07,09,13,42,25.90
2015,07,09,13,43,25.80
2015,07,09,13,44,25.70
2015,07,09,13,45,25.70
2015,07,09,13,46,25.80
2015,07,09,13,47,25.80
2015,07,09,13,48,25.80
2015,07,09,13,49,25.70
2015,07,09,13,50,25.60
2015,07,09,13,51,25.50
2015,07,09,13,52,25.50
2015,07,09,13,53,25.40
2015,07,09,13,54,25.40
2015,07,09,13,55,25.40
2015,07,09,13,56,25.40
2015,07,09,13,57,25.40
2015,07,09,13,58,25.50
2015,07,09,13,59,25.60
2015,07,09,14,00,25.60
2015,07,09,14,01,25.70
2015,07,09,14,02,25.80
2015,07,09,14,03,25.90
2015,07,09,14,04,26.00
2015,07,09,14,05,26.10
2015,07,09,14,06,26.10
2015,07,09,14,07,26.00
2015,07,09,14,08,25.90
2015,07,09,14,09,25.90
2015,07,09,14,10,25.90
2015,07,09,14,11,26.00
2015,07,09,14,12,26.10
2015,07,09,14,13,26.20
2015,07,09,14,14,26.30
2015,07,09,14,15,26.30
2015,07,09,14,16,26.30
2015,07,09,14,17,26.20
2015,07,09,14,18,26.20
2015,07,09,14,19,26.20
2015,07,09,14,20,26.20
2015,07,09,14,21,26.20
2015,07,09,14,22,26.20
2015,07,09,14,23,26.10
2015,07,09,14,24,26.10
2015,07,09,14,25,26.00
2015,07,09,14,26,26.00
2015,07,09,14,27,26.00
2015,07,09,14,28,26.00
2015,07,09,14,29,26.10
2015,07,09,14,30,26.10
2015,07,09,14,31,26.20
2015,07,09,14,32,26.30
2015,07,09,14,33,26.40
2015,07,09,14,34,26.50
2015,07,09,14,35,26.60
2015,07,09,14,36,26.70
2015,07,09,14,37,26.80
2015,07,09,14,38,26.90
2015,07,09,14,39,27.00
2015,07,09,14,40,27.10
2015,07,09,14,41,27.30
2015,07,09,14,42,27.40
2015,07,09,14,43,27.50
2015,07,09,14,44,27.50
2015,07,09,14,45,27.60
2015,07,09,14,46,27.70
2015,07,09,14,47,27.70
2015,07,09,14,48,27.60
2015,07,09,14,49,27.60
2015,07,09,14,50,27.60
2015,07,09,14,51,27.60
2015,07,09,14,52,27.60
2015,07,09,14,53,27.50
2015,07,09,14,54,27.50
2015,07,09,14,55,27.50
2015,07,09,14,56,27.60
2015,07,09,14,57,27.60
2015,07,09,14,58,27.60
2015,07,09,14,59,27.60
2015,07,09,15,00,27.60
2015,07,09,15,01,27.60
2015,07,09,15,02,27.60
2015,07,09,15,03,27.60
2015,07,09,15,04,27.70
2015,07,09,15,05,27.80
2015,07,09,15,06,27.90
2015,07,09,15,07,28.00
2015,07,09,15,08,28.10
2015,07,09,15,09,28.20
2015,07,09,15,10,28.20
2015,07,09,15,11,28.30
2015,07,09,15,12,28.30
2015,07,09,15,13,28.40
2015,07,09,15,14,28.50
2015,07,09,15,15,28.60
2015,07,09,15,16,28.70
2015,07,09,15,17,28.60
2015,07,09,15,18,28.50
2015,07,09,15,19,28.40
2015,07,09,15,20,28.40
2015,07,09,15,21,28.40
2015,07,09,15,22,28.40
2015,07,09,15,23,28.40
2015,07,09,15,24,28.40
2015,07,09,15,25,28.50
2015,07,09,15,26,28.50
2015,07,09,15,27,28.40
2015,07,09,15,28,28.30
2015,07,09,15,29,28.20
2015,07,09,15,30,28.10
2015,07,09,15,31,28.00
2015,07,09,15,32,27.90
2015,07,09,15,33,27.80
2015,07,09,15,34,27.80
2015,07,09,15,35,27.60
2015,07,09,15,36,27.50
2015,07,09,15,37,27.50
2015,07,09,15,38,27.60
2015,07,09,15,39,27.70
2015,07,09,15,40,27.80
2015,07,09,15,41,27.90
2015,07,09,15,42,28.10
2015,07,09,15,43,28.20
2015,07,09,15,44,28.20
2015,07,09,15,45,28.20
2015,07,09,15,46,28.20
2015,07,09,15,47,28.20
2015,07,09,15,48,28.10
2015,07,09,15,49,28.00
2015,07,09,15,50,28.00
2015,07,09,15,51,27.90
2015,07,09,15,52,27.90
2015,07,09,15,53,27.90
2015,07,09,15,54,27.90
2015,07,09,15,55,27.90
2015,07,09,15,56,27.80
2015,07,09,15,57,27.80
2015,07,09,15,58,27.80
2015,07,09,15,59,27.80
2015,07,09,16,00,27.80
2015,07,09,16,01,27.90
2015,07,09,16,02,28.00
2015,07,09,16,03,28.00
2015,07,09,16,04,28.00
2015,07,09,16,05,28.00
2015,07,09,16,06,27.90
2015,07,09,16,07,27.90
2015,07,09,16,08,27.90
2015,07,09,16,09,27.90
2015,07,09,16,10,28.00
2015,07,09,16,11,28.10
2015,07,09,16,12,28.10
2015,07,09,16,13,28.20
2015,07,09,16,14,28.20
2015,07,09,16,15,28.10
2015,07,09,16,16,28.00
2015,07,09,16,17,28.00
2015,07,09,16,18,27.90
2015,07,09,16,19,27.90
2015,07,09,16,20,27.80
2015,07,09,16,21,27.70
2015,07,09,16,22,27.70
2015,07,09,16,23,27.60
2015,07,09,16,24,27.60
2015,07,09,16,25,27.50
2015,07,09,16,26,27.40
2015,07,09,16,27,27.40
2015,07,09,16,28,27.40
2015,07,09,16,29,27.40
2015,07,09,16,30,27.40
2015,07,09,16,31,27.40
2015,07,09,16,32,27.50
2015,07,09,16,33,27.60
2015,07,09,16,34,27.60
2015,07,09,16,35,27.60
2015,07,09,16,36,27.50
2015,07,09,16,37,27.50
2015,07,09,16,38,27.40
2015,07,09,16,39,27.40
2015,07,09,16,40,27.40
2015,07,09,16,41,27.30
2015,07,09,16,42,27.20
2015,07,09,16,43,27.20
2015,07,09,16,44,27.20
2015,07,09,16,45,27.20
2015,07,09,16,46,27.20
2015,07,09,16,47,27.20
2015,07,09,16,48,27.20
2015,07,09,16,49,27.10
2015,07,09,16,50,27.00
2015,07,09,16,51,26.90
2015,07,09,16,52,26.80
2015,07,09,16,53,26.80
2015,07,09,16,54,26.70
2015,07,09,16,55,26.70
2015,07,09,16,56,26.60
2015,07,09,16,57,26.60
2015,07,09,16,58,26.60
2015,07,09,16,59,26.60
2015,07,09,17,00,26.60
2015,07,09,17,01,26.60
2015,07,09,17,02,26.70
2015,07,09,17,03,26.70
2015,07,09,17,04,26.80
2015,07,09,17,05,26.80
2015,07,09,17,06,26.90
2015,07,09,17,07,26.90
2015,07,09,17,08,26.90
2015,07,09,17,09,26.90
2015,07,09,17,10,26.90
2015,07,09,17,11,26.90
2015,07,09,17,12,26.90
2015,07,09,17,13,26.80
2015,07,09,17,14,26.80
2015,07,09,17,15,26.80
2015,07,09,17,16,26.80
2015,07,09,17,17,26.80
2015,07,09,17,18,26.70
2015,07,09,17,19,26.70